Location: Dronrijp
(53.1946°N, 5.6450°E)
Time: 09:37:42
(UTC+00:00)

Daily predictions for brighter satellites

Satellite Brightness Start Highest point End
(mag) Time Altitude Azimuth Time Altitude Azimuth Time Altitude Azimuth
Cosmos 2369 3.7 15:52:19 10° NNW 15:58:05 79° NE 16:03:49 10° SE
H-2A R/B 3.0 15:57:12 10° ESE 16:01:10 24° ENE 16:05:05 10° N
Cosmos 2237 Rocket 4.1 16:00:34 10° NNW 16:03:03 13° N 16:05:32 10° NNE
SL-16 R/B 3.0 15:58:13 10° NNW 16:03:15 31° NE 16:08:16 10° ESE
ATLAS CENTAUR R/B 3.0 15:59:32 10° W 16:03:19 28° NNW 16:07:21 10° NE
Cosmos 1812 4.4 16:01:14 10° ESE 16:03:28 15° E 16:05:43 10° NE
USA 308 2.9 15:59:36 10° W 16:03:51 80° N 16:08:08 10° E
MOS 1 Rocket 3.4 15:59:28 10° NNE 16:04:29 89° W 16:09:09 10° SSW
Cosmos 2221 2.6 16:01:22 10° S 16:05:40 86° W 16:10:02 10° N
Okean O Rocket 3.2 16:03:47 10° E 16:06:17 15° NE 16:08:46 10° NNE
Sich 1 3.3 16:03:23 10° N 16:07:32 44° ENE 16:11:40 10° SE
Cosmos 1500 Rocket 3.6 16:03:11 10° N 16:07:39 86° ENE 16:12:03 10° S
CZ-2C R/B 2.8 16:03:03 10° SSE 16:07:48 65° ENE 16:12:31 10° N
Envisat 4.1 16:03:40 10° S 16:08:36 50° W 16:13:34 10° NNW
Cosmos 2082 Rocket 3.1 16:04:40 10° SSE 16:09:36 32° ESE 16:14:32 10° NE
Cosmos 540 Rocket 3.9 16:05:45 10° S 16:10:33 43° ESE 16:15:23 10° NE
ARGOS 4.3 16:08:24 10° ESE 16:12:25 22° NE 16:16:25 10° N
SJ-7 4.5 16:09:54 10° SSE 16:14:08 81° ENE 16:18:24 10° NNW
FengYun 1-2 T 4.3 16:10:12 10° SE 16:15:39 61° ENE 16:21:06 10° N
COSMOS 2455 3.4 16:10:20 10° S 16:15:56 42° ESE 16:21:34 10° NE
SMAP 3.3 16:13:51 10° SE 16:18:19 48° ENE 16:22:49 10° N
NOAA 6 4.2 16:14:53 10° SE 16:19:50 52° ENE 16:24:49 10° N
Cosmos 1805 Rocket 3.5 16:15:46 10° N 16:20:07 71° ENE 16:24:27 10° SSE
Cosmos 2278 3.7 16:14:49 10° NNW 16:20:34 70° NE 16:26:14 10° SE
Cosmos 2333 Rocket 3.6 16:18:07 10° NNW 16:22:17 20° NNE 16:26:02 11° ENE
Cosmos 1833 Rocket 2.7 16:17:05 10° SSW 16:22:41 73° ESE 16:28:20 10° NE
Cosmos 1933 3.5 16:19:02 10° S 16:22:58 53° E 16:26:54 10° NNE
Cosmos 1602 3.6 16:19:10 10° N 16:23:03 78° ENE 16:26:56 10° SSE
SL-16 R/B 4.2 16:22:11 10° NW 16:24:59 14° N 16:27:47 10° NNE
USA 305 2.9 16:23:59 10° W 16:28:15 88° N 16:32:30 10° E
CZ-2C R/B 4.0 16:25:22 10° NE 16:28:41 17° E 16:32:00 10° SE
CZ-4B DEB 4.4 16:23:45 10° SE 16:29:02 51° ENE 16:34:20 10° N
Meteor 1-25 Rocket 4.4 16:24:12 10° NNW 16:29:47 79° W 16:35:24 10° S
Cosmos 1842 Rocket 4.2 16:25:44 10° SSW 16:30:10 60° WNW 16:34:38 10° N
Cosmos 2219 Rocket 3.7 16:26:28 10° NNW 16:30:22 18° NNE 16:33:20 13° ENE
Cosmos 1500 3.1 16:29:34 10° N 16:33:20 67° ENE 16:37:02 10° SSE
Meteor 1-14 Rocket 4.4 16:27:38 10° N 16:33:24 55° ENE 16:39:13 10° SSE
CZ-4B R/B 2.8 16:30:25 10° SSE 16:34:18 83° WSW 16:38:03 10° NNW
Cosmos 1606 4.3 16:31:11 10° SW 16:34:39 34° WNW 16:38:11 10° N
Cosmos 44 Rocket 3.2 16:29:51 10° NW 16:34:51 78° NE 16:39:40 10° SE
COSMOS 2406 3.2 16:36:35 10° SSW 16:42:19 78° ESE 16:48:00 10° NNE
Cosmos 1814 Rocket 4.5 16:38:36 10° S 16:43:26 40° ESE 16:47:38 13° NE
Cosmos 468 Rocket 4.2 16:38:21 10° SSW 16:43:32 73° WNW 16:48:48 10° NNE
Cosmos 921 Rocket 4.4 16:41:49 10° SE 16:44:49 19° E 16:45:57 17° ENE
Cosmos 1570 Rocket 4.5 16:45:27 10° S 16:50:18 40° ESE 16:54:14 15° NE
Cosmos 1092 Rocket 4.3 16:45:01 10° NNW 16:51:22 73° W 16:57:39 10° S
Cosmos 2298 Rocket 4.1 16:48:11 10° NNW 16:53:28 56° ENE 16:58:42 10° SE
Cosmos 371 Rocket 4.5 16:49:48 10° N 16:53:38 23° NE 16:55:08 20° ENE
CZ-4B R/B 3.4 16:50:01 10° SE 16:55:08 46° ENE 17:00:11 10° N
USA 267 3.8 16:50:26 16° ENE 16:55:25 45° SE 17:01:38 10° SSW
CZ-2D R/B 3.2 16:53:32 10° SSE 16:57:17 56° ENE 17:01:03 10° N
ATLAS CENTAUR R/B 2.7 16:49:59 10° SW 16:58:58 72° SSE 17:01:31 23° ENE
MOS 1-B 4.3 16:54:18 10° SSE 16:59:59 65° ENE 17:05:45 10° NNW
Cosmos 1939 Rocket 3.2 16:55:55 10° S 17:00:00 70° WSW 17:04:03 10° NNW
Cosmos 1633 Rocket 3.0 16:55:52 10° N 17:00:15 67° ENE 17:04:38 10° SSE
COSMO-SKYMED 1 3.7 16:59:10 22° ENE 17:00:15 24° E 17:03:48 10° SSE
USA 306 2.9 16:56:16 10° WNW 17:00:32 79° SSW 17:03:51 16° ESE
Cosmos 1666 2.5 16:58:19 10° N 17:02:03 78° ENE 17:05:46 10° SSE
Cosmos 1151 Rocket 3.2 16:58:38 10° S 17:02:51 52° E 17:06:59 11° NNE
Cosmos 2360 Rocket 2.7 16:59:05 10° NNW 17:04:22 38° NE 17:08:17 17° ESE
Cosmos 1782 2.8 17:00:56 10° SSW 17:04:55 85° W 17:08:56 10° N
ISS -0.6 17:03:51 10° WSW 17:05:28 13° SW 17:07:05 10° S
Meteor 2-6 Rocket 4.5 17:00:37 10° SSE 17:05:59 45° E 17:11:13 10° NNE
SeaSat 1 3.7 17:02:45 10° NNE 17:07:13 35° NW 17:11:39 10° WSW
Cosmos 2237 4.4 17:02:12 10° NNW 17:07:45 48° NE 17:13:15 10° ESE
SL-08 R/B 3.9 17:03:14 10° N 17:07:52 55° WNW 17:12:22 10° SW
Cosmos 1763 Rocket 4.3 17:05:04 10° SW 17:09:59 47° NW 17:14:59 10° NNE
PAYLOAD B 4.2 17:04:26 10° SSE 17:10:02 79° ENE 17:15:39 10° NNW
Cosmos 1818 3.9 17:04:51 10° NW 17:10:19 68° SW 17:15:44 10° SSE
YAOGAN 1 3.6 17:11:21 25° NE 17:11:21 25° NE 17:14:27 10° N
Cosmos 1536 3.8 17:13:48 10° N 17:16:30 28° NE 17:16:30 28° NE
ATLAS 5 CENTAUR R/B 2.3 17:08:46 10° NW 17:17:37 86° NNE 17:19:39 23° ESE
Cosmos 2279 Rocket 3.9 17:12:50 10° S 17:19:00 72° E 17:25:12 10° NNE
Cosmos 2266 Rocket 4.1 17:12:53 10° N 17:19:12 58° ENE 17:25:31 10° SSE
Cosmos 2142 Rocket 4.4 17:13:47 10° S 17:19:57 76° E 17:26:14 10° NNE
Cosmos 841 Rocket 3.6 17:14:57 10° SSW 17:20:06 75° WNW 17:24:31 14° NNE
ERBS 2.6 17:17:18 10° WNW 17:20:23 42° N 17:20:46 40° NNE
USA 307 3.0 17:16:50 10° WNW 17:21:06 71° SSW 17:23:33 24° ESE
CZ-4C R/B 3.8 17:14:16 10° NW 17:21:09 53° SW 17:29:11 10° SSE
Lacrosse 5 rocket 2.7 17:20:15 10° WNW 17:23:51 37° SW 17:27:39 10° SSE
NOSS 3-4 (A) 4.1 17:19:00 10° NW 17:25:16 46° NNE 17:28:52 27° E
NOSS 3-4 (C) 4.1 17:19:05 10° NW 17:25:22 46° NNE 17:28:56 27° E
SL-08 RB Rocket 3.9 17:22:12 10° SE 17:26:35 45° ENE 17:30:57 10° N
Cosmos 2322 Rocket 2.1 17:21:35 10° NNW 17:27:18 70° NE 17:33:00 10° SE
Cosmos 1933 Rocket 3.6 17:23:06 10° N 17:27:21 50° ENE 17:31:34 10° SSE
ATLAS 2AS CENTAUR R/B 3.5 17:20:55 10° WNW 17:27:58 39° N 17:31:18 26° ENE
COSMOS 2428 3.7 17:23:18 10° NNW 17:28:06 26° NE 17:28:43 26° NE
Cosmos 2150 Rocket 3.9 17:23:53 10° NNW 17:29:06 89° WSW 17:34:21 10° SSE
Cosmos 2208 Rocket 4.1 17:24:11 10° S 17:29:33 65° ESE 17:32:51 24° NE
Cosmos 1666 Rocket 4.3 17:25:24 10° NNW 17:29:46 55° W 17:34:03 10° S
Cosmos 1980 Rocket 4.0 17:25:09 10° NW 17:30:09 33° WSW 17:35:06 10° SSW
USA 234 3.7 17:25:05 10° SE 17:31:33 61° SW 17:38:02 10° WNW
Cosmos 1328 Rocket 3.4 17:28:29 10° S 17:32:54 74° E 17:36:01 19° NNE
Cosmos 1470 Rocket 3.5 17:28:56 10° N 17:33:27 85° E 17:37:56 10° SSE
Cosmos 1544 2.9 17:29:58 10° N 17:33:36 69° ENE 17:37:12 10° SSE
Cosmos 1125 Rocket 3.5 17:30:03 10° NNW 17:35:20 86° WSW 17:40:37 10° SSE
Cosmos 1812 3.2 17:34:56 10° SSW 17:38:45 61° WNW 17:41:44 16° N
H-2A R/B 2.3 17:35:10 10° S 17:40:14 68° WSW 17:45:13 10° NNW
Meteor 1-11 Rocket 3.6 17:34:52 10° N 17:40:31 74° ENE 17:46:16 10° SSE
Okean O Rocket 1.5 17:37:29 10° SSE 17:41:57 80° ENE 17:46:26 10° NNW
Cosmos 2322 4.3 17:37:07 10° NNW 17:42:19 35° NE 17:42:44 34° NE
Meteor 2-8 Rocket 4.3 17:36:48 10° S 17:42:57 80° E 17:49:09 10° NNE
Meteor 1-10 Rocket 4.2 17:37:25 10° S 17:43:03 63° E 17:47:11 18° NNE
ATLAS CENTAUR R/B 3.3 17:40:09 10° NW 17:43:34 20° N 17:44:13 19° NNE
GEOS 3 Rocket 3.7 17:41:55 38° E 17:43:37 55° NE 17:48:40 10° NW
USA 308 3.3 17:39:32 10° WNW 17:43:44 58° SSW 17:45:21 34° SE
USA 32 4.2 17:40:09 10° SSE 17:45:07 46° E 17:46:22 39° NE
SL-16 R/B 2.4 17:42:13 10° NW 17:47:53 73° WSW 17:53:32 10° SSE
SKYMED 2 3.5 17:47:47 51° NE 17:48:38 64° ESE 17:52:56 10° S
Cosmos 2237 Rocket 3.7 17:45:28 10° NNW 17:49:04 19° NNE 17:49:04 19° NNE
IRS-1C Rocket 4.5 17:51:33 41° NE 17:51:33 41° NE 17:56:06 10° N
ARGOS 3.1 17:46:40 10° SSE 17:52:05 85° WSW 17:57:32 10° NNW
Cosmos 2082 Rocket 2.7 17:47:48 10° SW 17:53:25 59° NW 17:56:57 23° NNE
H-2A R/B 4.3 17:56:26 18° N 17:56:26 18° N 17:57:39 10° N
CZ-4 R/B 3.4 17:58:55 17° N 17:58:55 17° N 17:59:53 10° N
deb Chang Zheng 4 3.9 17:53:16 10° S 17:57:33 65° WSW 18:01:52 10° NNW
COSMOS 2455 3.4 17:55:53 10° WSW 18:01:48 55° NW 18:04:54 28° NNE
Feng Yun 1-1 Rocket 4.3 18:01:04 10° SSE 18:06:59 86° ENE 18:12:50 10° NNW
Cosmos 1833 Rocket 4.2 18:02:10 10° WSW 18:07:09 31° NW 18:10:35 17° N
Cosmos 2333 Rocket 2.3 18:02:13 10° NNW 18:07:55 54° NE 18:08:05 53° ENE
USA 305 3.9 18:03:55 10° WNW 18:07:55 41° SSW 18:08:52 36° S
Cosmos 1356 Rocket 3.9 18:03:58 10° NNW 18:08:08 62° W 18:12:20 10° S
CZ-2C R/B 2.5 18:06:50 27° NNE 18:09:44 87° WNW 18:14:55 10° SSW
SL-16 R/B 4.1 18:08:16 10° NNW 18:11:02 16° N 18:11:02 16° N
Cosmos 2219 Rocket 2.5 18:10:11 10° NNW 18:15:05 47° NNE 18:15:05 47° NNE
Cosmos 1655 Rocket 4.5 18:09:32 10° NNW 18:15:51 63° W 18:22:06 10° S
Aureole 3 Rocket 3.6 18:14:27 10° S 18:19:19 77° E 18:26:18 10° NNE
Cosmos 1515 Rocket 3.7 18:15:39 10° SSW 18:20:04 71° WNW 18:20:26 66° NW
Cosmos 921 Rocket 3.4 18:18:30 10° SW 18:22:40 59° WNW 18:22:47 59° WNW
Nadezhda 2 Rocket 4.4 18:16:19 10° N 18:22:46 67° ENE 18:24:23 50° SE
Spot 2 4.5 18:23:28 23° S 18:26:42 80° WSW 18:31:47 10° NNW
Cosmos 371 Rocket 3.6 18:29:47 10° NNW 18:33:50 61° NW 18:33:50 61° NW
Cosmos 2333 4.1 18:29:57 10° NNW 18:35:33 80° NNE 18:35:33 80° NNE
COSMO-SKYMED 1 3.4 18:36:23 47° NW 18:36:40 48° WNW 18:40:51 10° SW
USA 267 3.1 18:37:47 66° ENE 18:38:50 86° NNW 18:45:24 10° WSW
Meteor 1-27 Rocket 3.8 18:40:37 10° SSW 18:46:07 72° WNW 18:46:30 69° NW
YAOGAN 1 4.1 18:48:29 31° NW 18:48:29 31° NW 18:50:59 10° NNW
Cosmos 2360 Rocket 2.7 18:43:06 10° NW 18:48:38 55° WSW 18:50:08 43° SSW
Cosmos 2322 Rocket 4.1 19:06:15 10° NW 19:10:54 26° WSW 19:15:33 10° SSW
COSMOS 2428 3.8 19:07:23 10° NNW 19:10:45 37° NNW 19:10:45 37° NNW
NOSS 3-4 (A) 3.8 19:09:56 10° NW 19:16:19 75° W 19:16:19 75° W
NOSS 3-4 (C) 3.8 19:10:02 10° NW 19:16:23 75° W 19:16:23 75° W
Okean O Rocket 4.5 19:16:12 10° SW 19:18:52 16° W 19:21:34 10° NW
ATLAS 2AS CENTAUR R/B 3.2 19:12:44 10° NW 19:18:44 55° NNW 19:18:44 55° NNW
ATLAS CENTAUR R/B 4.3 19:19:34 10° NW 19:20:20 14° NNW 19:20:20 14° NNW
Cosmos 2237 Rocket 4.2 19:29:17 10° NNW 19:30:53 19° NNW 19:30:53 19° NNW
Cosmos 2082 Rocket 4.2 19:34:36 10° WNW 19:38:43 20° NNW 19:38:48 20° NNW
Cosmos 2333 Rocket 4.0 19:46:48 10° NW 19:50:07 29° WNW 19:50:07 29° WNW
Cosmos 2219 Rocket 4.2 19:54:21 10° NW 19:56:49 24° WNW 19:56:49 24° WNW
